Temperature
18 18 17 17 17 17 17 17 17 17 17 17 17 17 17 17 17 17 17 17 17 17 17 17 17 17 17 17 17 17 17 17 17 17 17 17 17 17 17 17 16 16 16
17 17 17 17 17 17 17 17 17 17 17 17 17 17 16 17 17 17 17 17 17 17 17 17 17 17 17 17 17 17 17 17 17 17 17 17 17 17 17 17 17 16 16
17 17 17 17 17 17 16 16 16 16 16 16 16 16 16 16 17 17 17 17 17 17 17 17 17 17 17 17 17 17 17 17 17 17 17 17 17 17 17 17 17 16 16
16 16 16 16 16 16 16 16 16 16 16 16 16 16 16 16 16 17 17 17 17 17 17 17 17 17 17 17 17 17 17 17 17 17 17 17 17 17 17 17 17 17 16
16 16 16 16 16 16 16 16 16 16 16 16 15 16 16 16 16 16 16 17 17 17 17 17 17 17 17 17 17 17 17 17 17 17 17 17 17 17 17 17 17 17 16
16 16 16 16 16 15 15 15 15 15 15 15 15 15 16 16 16 16 16 16 17 17 17 17 17 17 17 17 17 17 17 17 17 17 17 17 17 17 17 17 16 16 16
16 15 15 15 15 15 15 15 15 15 15 15 15 15 15 16 16 16 16 16 16 17 17 17 17 17 17 17 17 17 17 17 17 17 17 17 17 17 17 17 16 16 16
15 15 15 15 14 14 14 14 14 14 14 14 14 14 14 15 16 16 16 16 16 16 17 17 17 17 17 17 17 17 17 17 17 17 17 17 17 17 17 17 17 16 16
15 14 14 14 14 14 14 14 13 13 13 14 14 13 14 14 15 16 16 16 16 16 16 16 16 17 17 17 17 17 17 17 17 17 17 17 17 17 17 17 17 16 16
14 14 14 13 13 13 13 13 13 13 13 13 13 13 13 13 14 15 15 16 16 16 16 16 16 17 17 17 17 17 17 17 17 17 17 17 17 17 17 17 16 16 16
13 13 13 13 13 13 13 13 13 13 13 13 13 13 13 13 13 14 14 15 15 16 16 16 16 16 17 17 17 17 17 17 17 16 16 16 16 16 17 16 16 16 16
13 12 12 12 12 12 12 12 12 12 12 12 12 13 13 13 13 13 14 14 15 15 16 16 16 16 17 17 17 17 17 17 16 16 16 16 16 16 16 16 16 16 16
12 12 12 12 12 12 12 12 12 12 12 12 12 12 12 12 13 13 13 14 14 15 15 16 16 16 16 16 17 17 16 16 16 16 16 16 16 16 16 16 16 16 16
11 11 11 11 11 11 11 11 11 11 12 12 12 12 12 12 12 12 13 13 13 14 15 15 16 16 16 16 16 16 16 16 16 16 16 16 16 16 16 16 16 16 16
10 10 10 10 10 11 11 11 11 11 11 11 11 11 11 11 12 12 12 12 13 13 14 15 15 16 16 16 16 16 16 16 16 16 16 16 16 16 16 16 16 16 16
10 10 10 10 10 10 10 10 10 10 10 11 11 11 11 11 11 11 12 12 12 12 13 14 14 15 15 15 16 16 16 16 16 16 16 16 16 16 16 16 16 16 16
9 9 9 9 9 9 9 9 10 10 10 10 10 10 11 11 11 11 11 11 12 12 12 13 14 14 15 15 15 15 16 16 16 15 16 16 16 16 16 16 16 16 16
9 9 9 9 9 9 9 9 9 9 9 9 10 10 10 10 10 11 11 11 11 11 12 12 13 13 14 15 15 15 15 15 15 15 15 15 16 16 16 16 16 16 16
9 9 8 8 8 8 8 9 9 9 9 9 9 9 10 10 10 10 10 11 11 11 11 11 12 13 13 14 14 15 15 15 15 15 15 15 15 15 15 15 16 16 16
8 8 8 8 8 8 8 8 8 8 8 8 9 9 9 9 10 10 10 10 10 11 11 11 11 12 12 13 13 14 14 14 14 14 14 15 15 15 15 15 15 16 16
8 8 8 8 8 8 8 8 8 8 8 8 8 8 9 9 9 9 10 10 10 10 10 11 11 11 12 12 13 13 13 13 13 13 14 14 14 15 15 15 15 15 15
8 8 8 8 8 8 7 7 7 7 7 8 8 8 8 8 9 9 9 10 10 10 10 10 11 11 11 12 12 12 12 12 12 13 13 13 13 14 14 14 15 15 15
8 8 8 8 7 7 7 7 7 7 7 7 7 8 8 8 8 8 9 9 9 10 10 10 10 11 11 11 12 12 12 12 12 12 12 12 12 13 13 13 14 14 14
8 8 8 7 7 7 7 7 7 7 7 7 7 7 7 7 8 8 8 9 9 9 10 10 10 10 11 11 11 11 12 12 12 12 12 12 12 12 12 13 13 13 13
7 7 7 7 7 7 7 7 7 6 7 7 7 7 7 7 7 7 8 8 9 9 9 9 10 10 10 10 11 11 11 11 11 11 11 11 12 12 12 12 12 13 13
7 7 7 7 7 7 7 7 6 6 6 6 7 7 7 7 7 7 7 8 8 9 9 9 9 9 10 10 10 10 11 11 11 11 11 11 11 11 11 11 12 12 12
Wind_Speed
4 4 4 5 6 7 6 6 7 8 9 10 12 12 12 14 14 13 13 17 19 20 21 23 24 25 26 25 24 24 23 23 22 21 20 19 19 18 18 17 16 16 15
4 3 3 3 5 6 6 6 6 6 7 7 9 11 12 14 14 15 15 16 20 21 22 23 25 26 26 26 26 26 25 24 23 23 22 21 20 20 19 18 17 17 17
2 2 2 2 3 5 6 5 6 5 6 7 9 10 10 13 13 15 16 15 16 19 22 24 24 26 28 28 27 27 27 26 25 24 24 23 22 21 21 20 19 18 18
0 0 1 2 3 3 3 3 4 4 5 6 7 8 8 9 12 14 15 15 15 15 18 22 24 27 28 29 28 28 28 28 27 26 26 25 24 23 22 21 21 20 20
0 0 1 2 3 2 2 3 3 3 5 6 7 8 8 9 10 12 13 15 16 16 16 18 22 26 28 29 29 29 28 28 28 28 27 26 25 25 24 23 23 22 22
0 0 1 2 2 2 2 3 4 4 4 6 7 8 8 9 9 10 12 12 14 17 17 17 18 21 27 29 29 29 28 28 28 29 28 27 27 26 26 25 24 24 23
2 1 1 2 1 2 3 3 3 4 4 3 4 5 6 8 10 10 10 10 11 14 16 17 17 16 18 26 29 29 29 28 28 29 29 28 28 27 27 26 25 25 25
3 2 2 3 2 2 3 3 2 2 3 2 2 3 3 4 5 8 9 10 11 9 11 16 16 17 17 18 21 27 29 29 28 28 29 28 28 28 27 27 27 26 26
4 3 3 3 3 3 3 4 3 3 3 3 3 3 2 3 3 3 6 8 8 8 10 10 14 17 18 18 19 23 27 28 28 28 28 28 28 28 28 28 27 27 27
5 5 4 4 4 3 4 4 3 3 3 3 3 4 4 3 3 3 2 4 6 8 9 10 11 14 17 17 18 20 24 27 28 28 28 28 28 28 28 28 27 27 27
5 6 5 4 4 4 5 5 4 3 3 3 3 2 3 4 5 4 4 3 3 5 7 8 9 9 14 16 16 19 22 25 26 27 27 27 27 27 28 27 27 26 26
5 6 5 4 5 4 5 5 5 4 4 4 3 3 2 3 3 4 5 4 3 3 4 5 7 7 10 13 16 18 21 22 24 24 25 25 26 26 26 26 26 25 25
4 6 5 5 5 5 5 5 5 5 5 4 4 3 3 4 3 3 3 3 3 2 2 3 5 6 8 11 13 18 19 20 21 22 22 23 23 24 24 25 25 24 24
6 7 6 6 7 6 6 5 5 6 5 5 6 5 4 4 3 3 3 2 3 2 2 3 2 4 5 8 11 15 14 18 19 20 20 21 21 21 21 22 23 23 23
6 7 6 7 7 6 6 5 5 6 5 6 6 6 4 4 3 3 3 3 3 3 3 2 1 2 3 5 8 10 11 15 17 17 18 18 18 18 18 18 19 19 20
6 7 7 7 7 7 6 6 6 6 6 7 6 6 6 5 4 4 3 3 4 4 3 2 1 1 2 3 5 7 8 12 14 16 16 16 16 16 16 15 16 16 17
7 7 8 7 8 8 7 6 7 7 7 8 7 7 8 7 5 4 4 3 3 3 4 3 2 1 1 3 4 5 7 7 9 14 15 14 14 14 13 13 14 14 14
7 8 8 8 9 9 8 7 9 8 8 9 9 8 9 7 7 6 5 5 4 4 4 4 2 1 1 3 4 6 5 7 7 11 13 12 12 11 11 11 11 12 12
8 8 7 8 9 9 9 9 9 9 9 10 9 9 10 9 9 7 7 6 5 5 4 4 3 1 1 3 4 5 6 5 7 9 10 11 11 11 10 10 10 10 11
8 8 8 9 9 10 10 10 10 10 10 10 10 10 10 10 10 9 8 8 6 6 5 4 4 3 2 3 5 5 5 4 5 6 8 9 10 10 10 10 10 10 10
9 8 9 10 9 9 9 9 9 10 10 10 10 10 10 12 14 11 9 8 8 6 5 5 5 4 4 5 5 5 6 6 3 3 5 4 5 6 6 8 9 10 10
9 9 9 10 10 9 11 13 11 10 10 10 11 10 10 12 14 15 15 14 12 9 8 6 5 6 6 5 5 6 6 6 4 4 5 3 3 4 4 5 8 11 11
9 10 10 10 11 12 14 15 15 11 11 11 11 10 10 10 10 10 12 14 14 15 13 9 8 7 6 7 8 8 8 7 5 7 5 4 3 3 3 6 9 11 12
9 9 10 10 10 12 14 14 15 11 10 11 12 11 11 11 10 10 9 10 11 11 13 10 9 9 7 7 8 8 8 6 5 5 5 4 4 3 3 4 8 10 12
10 9 9 10 11 12 13 13 12 8 9 11 11 11 11 12 12 13 11 10 9 9 10 12 11 10 9 10 9 7 8 8 5 4 3 4 4 3 3 2 5 10 11
10 10 10 10 10 11 12 13 11 6 8 9 9 10 12 13 13 13 12 11 11 9 8 8 9 8 8 9 11 10 10 10 6 5 6 6 6 5 4 2 3 6 8
Wind_Direction
234 234 243 251 255 256 252 251 253 252 247 239 238 241 242 238 239 236 237 240 237 235 232 227 222 216 210 207 206 204 203 201 198 196 195 194 193 191 191 190 190 189 188
235 237 242 247 252 255 259 254 250 249 249 243 239 239 243 245 242 239 237 241 242 237 235 231 225 219 215 212 210 208 206 205 203 200 199 198 197 196 195 195 195 194 195
242 236 246 256 259 260 263 260 259 255 255 248 242 239 242 244 241 240 238 236 238 240 238 232 226 220 217 216 214 211 209 207 206 204 202 202 201 199 199 199 199 199 200
113 141 277 279 284 282 276 269 265 265 258 255 249 243 241 240 240 240 239 235 232 236 239 235 228 221 218 217 218 215 212 210 208 207 205 205 205 203 202 202 202 202 203
43 195 261 284 300 302 287 282 270 257 262 261 258 252 243 240 240 240 236 234 231 229 231 235 232 225 222 220 219 219 215 212 211 209 208 208 208 207 206 205 205 206 206
13 214 250 276 291 297 297 289 282 272 265 266 270 265 251 242 237 235 236 236 231 230 229 231 231 228 225 222 220 220 218 214 212 212 211 211 210 209 208 208 208 209 209
331 295 275 278 280 276 280 289 287 289 281 270 271 273 262 244 237 233 231 232 232 230 226 225 224 224 223 223 221 219 219 217 214 213 212 212 211 210 210 210 211 212 212
317 300 277 276 273 274 284 282 273 285 283 269 253 274 287 278 243 234 226 227 231 227 226 225 222 219 218 218 220 220 220 219 217 215 213 212 212 211 211 211 212 214 215
312 296 281 269 263 248 261 266 253 255 277 274 235 240 257 269 295 262 230 225 224 223 227 222 220 219 218 216 216 218 219 218 218 217 215 213 212 212 212 213 214 216 216
305 303 291 275 265 252 253 260 252 246 255 278 276 244 245 254 269 296 279 230 225 227 230 226 220 216 215 214 213 213 216 217 218 218 216 214 213 212 212 213 215 216 217
303 302 296 285 276 264 257 256 255 246 241 252 265 264 256 250 240 251 276 274 245 236 232 225 219 211 210 211 211 214 213 214 214 216 216 214 212 212 213 215 217 218 218
300 297 293 282 274 266 260 258 253 247 242 249 255 255 255 257 250 243 254 272 271 262 241 222 217 213 208 208 211 209 209 209 210 213 214 213 211 210 212 215 218 219 219
289 290 294 285 279 269 263 256 250 249 239 240 244 249 252 252 257 259 260 269 273 284 270 232 218 212 208 205 209 207 209 207 208 210 210 209 209 209 210 213 215 218 220
272 279 283 279 276 274 274 262 253 252 244 240 247 245 250 257 249 252 255 263 274 273 267 255 222 207 203 199 204 199 205 203 204 206 207 206 205 206 208 211 213 216 218
275 277 279 281 282 279 274 266 255 254 249 245 247 247 245 252 250 248 249 247 245 254 257 256 236 202 191 192 196 194 194 195 196 198 199 198 197 199 202 205 209 213 217
279 286 286 283 283 280 275 265 261 258 252 252 247 246 247 247 247 244 243 245 242 238 250 267 261 234 177 177 172 176 178 178 182 184 185 186 187 189 194 199 204 208 212
286 285 284 284 283 280 274 265 262 259 253 255 251 244 246 244 242 241 236 238 241 239 246 259 261 251 161 166 149 145 147 149 160 167 169 171 174 178 184 191 198 202 206
284 283 284 284 283 280 274 266 266 263 254 253 252 246 248 244 238 237 231 233 234 229 229 242 239 216 180 170 153 139 132 131 135 146 151 155 162 168 174 180 186 192 197
287 288 285 283 282 281 277 271 266 264 258 254 252 249 248 242 239 234 229 231 231 229 218 222 225 209 174 158 143 130 125 119 114 123 130 139 147 153 160 166 171 175 180
287 286 284 281 279 278 276 274 269 264 261 257 252 249 247 240 238 233 229 227 224 223 217 211 213 204 184 163 158 155 143 131 126 120 115 120 128 132 141 149 156 162 166
288 283 285 284 281 278 272 269 265 266 261 260 257 251 249 246 240 232 228 221 214 214 214 211 205 200 190 177 176 164 153 138 123 132 129 123 123 122 126 135 142 149 152
289 287 284 284 283 279 276 275 273 269 264 260 260 258 255 257 251 239 231 221 209 206 209 209 208 204 200 188 174 166 156 156 162 156 147 136 130 127 119 127 140 144 145
288 289 287 284 281 277 273 274 273 269 262 258 256 254 255 251 244 242 235 230 222 214 204 201 209 209 200 191 181 178 178 170 163 158 149 145 137 133 112 118 137 140 140
287 286 285 284 281 279 276 273 273 270 263 258 253 248 246 248 244 235 235 232 227 222 214 211 214 214 208 195 191 189 175 147 119 148 152 151 151 141 116 110 132 137 138
292 289 286 285 284 284 281 278 275 270 263 261 256 249 243 244 240 229 228 227 228 230 224 215 211 212 208 200 183 171 170 165 163 168 163 148 145 132 122 120 122 134 137
289 293 291 286 283 283 284 283 280 265 262 262 259 253 245 241 238 224 222 219 222 223 214 208 207 206 205 200 187 187 183 179 165 165 168 153 150 149 138 128 129 132 130
Height
1541 1541 1542 1543 1543 1543 1544 1544 1544 1545 1545 1546 1547 1547 1548 1550 1551 1552 1553 1555 1557 1559 1561 1563 1565 1567 1569 1572 1574 1577 1579 1581 1584 1586 1589 1591 1594 1596 1598 1600 1603 1605 1607
1538 1538 1539 1539 1539 1539 1540 1539 1540 1540 1540 1541 1541 1542 1543 1544 1545 1546 1548 1549 1551 1554 1556 1558 1561 1563 1566 1568 1571 1573 1576 1579 1581 1584 1587 1589 1592 1594 1597 1599 1601 1604 1606
1535 1536 1536 1536 1535 1535 1535 1535 1535 1535 1535 1535 1535 1536 1537 1538 1539 1541 1542 1544 1546 1548 1550 1553 1556 1558 1561 1564 1567 1569 1572 1575 1578 1581 1584 1587 1589 1592 1595 1597 1600 1602 1604
1532 1533 1533 1533 1532 1531 1531 1530 1530 1530 1529 1529 1529 1530 1530 1531 1533 1535 1536 1538 1539 1542 1544 1547 1550 1553 1556 1559 1562 1565 1568 1571 1574 1577 1580 1583 1586 1589 1592 1594 1597 1600 1602
1530 1530 1530 1529 1528 1527 1527 1526 1525 1525 1524 1523 1523 1523 1524 1524 1526 1528 1529 1531 1533 1535 1538 1541 1544 1547 1550 1553 1556 1559 1563 1566 1569 1573 1576 1580 1583 1586 1589 1591 1594 1597 1600
1528 1528 1527 1526 1525 1524 1523 1522 1521 1520 1519 1518 1517 1517 1517 1518 1519 1520 1522 1524 1526 1529 1532 1535 1538 1541 1544 1547 1550 1554 1557 1560 1564 1568 1571 1575 1578 1582 1585 1588 1591 1594 1597
1526 1525 1524 1523 1522 1521 1519 1518 1517 1516 1515 1514 1513 1511 1511 1512 1512 1512 1514 1516 1519 1522 1525 1528 1531 1534 1537 1541 1545 1548 1552 1555 1559 1563 1566 1570 1574 1577 1581 1584 1587 1590 1593
1523 1522 1521 1520 1518 1517 1516 1515 1514 1512 1511 1511 1509 1508 1506 1507 1505 1506 1507 1509 1511 1515 1518 1521 1524 1528 1531 1535 1538 1542 1546 1550 1553 1557 1561 1564 1568 1572 1576 1579 1583 1586 1589
1520 1519 1517 1516 1515 1514 1513 1512 1511 1509 1508 1507 1506 1506 1505 1502 1501 1501 1501 1503 1505 1509 1511 1514 1517 1521 1525 1528 1532 1536 1540 1544 1548 1551 1555 1559 1563 1567 1570 1574 1578 1581 1584
1517 1515 1514 1512 1511 1510 1509 1508 1507 1506 1505 1504 1503 1502 1502 1501 1501 1498 1497 1498 1500 1502 1505 1508 1511 1515 1518 1522 1526 1530 1534 1538 1542 1546 1549 1553 1557 1561 1565 1569 1572 1576 1579
1513 1511 1510 1509 1507 1506 1505 1505 1504 1503 1502 1501 1500 1499 1498 1497 1497 1496 1494 1494 1496 1497 1499 1502 1505 1509 1513 1516 1520 1524 1528 1532 1536 1540 1544 1548 1551 1555 1559 1563 1567 1570 1574
1508 1507 1505 1504 1503 1502 1501 1500 1500 1499 1498 1497 1496 1495 1495 1494 1493 1493 1492 1491 1491 1493 1494 1496 1499 1503 1507 1511 1514 1518 1522 1526 1530 1534 1538 1542 1546 1550 1553 1557 1561 1565 1568
1503 1502 1500 1499 1498 1497 1496 1495 1495 1495 1494 1493 1493 1492 1491 1490 1490 1489 1489 1488 1488 1489 1490 1492 1494 1498 1502 1505 1509 1513 1517 1521 1525 1529 1533 1537 1541 1545 1548 1552 1555 1559 1563
1497 1496 1495 1494 1493 1492 1491 1490 1490 1489 1489 1489 1489 1488 1488 1487 1486 1486 1486 1486 1485 1486 1486 1488 1490 1493 1496 1500 1504 1508 1512 1516 1520 1524 1528 1532 1536 1539 1543 1546 1550 1553 1557
1492 1491 1489 1488 1487 1486 1485 1485 1484 1484 1484 1484 1484 1484 1484 1483 1483 1483 1483 1483 1484 1483 1483 1484 1486 1488 1492 1496 1499 1504 1508 1511 1515 1519 1523 1527 1531 1534 1538 1541 1545 1548 1552
1487 1486 1484 1483 1481 1480 1479 1479 1478 1478 1478 1478 1479 1479 1479 1479 1479 1479 1479 1479 1480 1481 1480 1481 1482 1484 1488 1492 1495 1499 1503 1507 1511 1514 1518 1522 1526 1529 1533 1536 1540 1543 1547
1482 1480 1479 1477 1476 1474 1474 1473 1472 1472 1472 1472 1473 1473 1473 1474 1475 1475 1475 1475 1476 1476 1477 1477 1479 1481 1484 1488 1491 1495 1499 1503 1506 1510 1514 1517 1521 1525 1528 1532 1535 1538 1541
1477 1475 1473 1471 1470 1468 1467 1466 1466 1465 1465 1465 1466 1467 1468 1469 1469 1470 1470 1471 1471 1472 1473 1474 1475 1477 1480 1483 1487 1491 1495 1498 1502 1506 1509 1513 1516 1520 1523 1527 1530 1533 1537
1472 1470 1468 1466 1464 1462 1461 1460 1459 1459 1458 1459 1459 1460 1461 1462 1463 1464 1465 1466 1467 1468 1469 1470 1471 1473 1476 1479 1483 1486 1490 1494 1498 1501 1505 1508 1512 1515 1519 1522 1525 1529 1532
1466 1464 1462 1459 1457 1456 1454 1453 1452 1452 1451 1452 1452 1453 1454 1455 1457 1458 1460 1461 1462 1463 1464 1466 1467 1470 1472 1475 1479 1482 1486 1490 1494 1497 1501 1504 1508 1511 1514 1518 1521 1524 1528
1461 1458 1455 1453 1451 1449 1447 1446 1445 1444 1444 1444 1445 1445 1447 1448 1449 1451 1453 1455 1457 1458 1460 1461 1463 1465 1468 1471 1474 1478 1482 1486 1490 1494 1497 1501 1504 1507 1510 1514 1517 1520 1524
1455 1453 1450 1448 1445 1443 1441 1440 1439 1437 1437 1437 1437 1438 1439 1440 1442 1444 1447 1449 1451 1453 1455 1456 1458 1461 1463 1467 1470 1474 1478 1482 1486 1490 1494 1497 1500 1503 1506 1510 1513 1517 1520
1450 1447 1445 1442 1439 1437 1436 1434 1432 1431 1430 1429 1429 1430 1431 1433 1435 1437 1439 1442 1444 1447 1450 1452 1454 1456 1459 1462 1466 1469 1473 1477 1481 1486 1490 1493 1497 1500 1503 1506 1510 1513 1516
1445 1442 1439 1437 1434 1431 1429 1427 1426 1424 1422 1422 1422 1423 1424 1425 1428 1430 1432 1434 1437 1440 1443 1446 1449 1451 1455 1458 1461 1465 1469 1474 1478 1482 1486 1490 1493 1497 1501 1504 1507 1510 1513
1441 1437 1434 1431 1428 1425 1423 1421 1419 1417 1415 1415 1415 1416 1417 1418 1420 1423 1425 1427 1430 1434 1437 1441 1444 1446 1449 1453 1456 1460 1464 1468 1473 1477 1481 1485 1489 1493 1497 1500 1504 1507 1511
1436 1432 1429 1426 1423 1419 1417 1415 1413 1410 1409 1408 1409 1409 1410 1411 1413 1416 1418 1421 1423 1427 1431 1435 1438 1441 1444 1447 1451 1454 1458 1463 1467 1472 1476 1481 1485 1489 1493 1497 1501 1504 1508